Regional Weather Roundup
Issued by NWS Cleveland, OH

Home | Current Version | Previous Version | Graphics & Text | Print | Product List | Glossary On
Versions: 1 2 3 4 5 6 7 8 9 10 11 12 13 14 15 16 17 18 19 20 21 22 23 24 25 26 27 28 29 30 31 32 33 34 35 36 37 38 39 40 41 42 43 44 45 46 47 48 49 50
393
ASUS41 KCLE 241110
RWRCLE
OHIO REGIONAL WEATHER ROUNDUP
NATIONAL WEATHER SERVICE CLEVELAND, OH
700 AM EDT SAT JUN 24 2017

NOTE: "FAIR" INDICATES FEW OR NO CLOUDS BELOW 12,000 FEET WITH NO
SIGNIFICANT WEATHER AND/OR OBSTRUCTIONS TO VISIBILITY.

OHZ001>008-015>018-024>027-034-035-043-044-241200-
   NORTHWEST OHIO

CITY           SKY/WX    TMP DP  RH WIND       PRES   REMARKS
DEFIANCE       CLEAR     61  55  81 NW8       29.86R
FINDLAY        PTCLDY    61  55  81 W8        29.85R
TOLEDO EXPRESS PTCLDY    59  56  89 W7        29.84R
TOLEDO EXEC    MOCLDY    62  56  80 W6        29.84R
LIMA           CLEAR     62  57  83 W8        29.88R
$$

OHZ009>014-019>023-028>033-038-089-241200-
   NORTHEAST OHIO

CITY           SKY/WX    TMP DP  RH WIND       PRES   REMARKS
CLE-HOPKINS    PTCLDY    64  57  78 SW8       29.83R
CLE-LAKEFRONT  SUNNY     65  56  72 SW10      29.79R
CUY CO. ARPT   MOSUNNY   66  61  82 SW9       29.81
LORAIN-ELYRIA  CLEAR     62  51  67 W9        29.83R
ASHTABULA      MOSUNNY   63  61  93 SW6       29.81R
AKRON-CANTON   MOSUNNY   63  57  81 W5        29.84R
WOOSTER        CLEAR     62  56  80 SW5       29.86R
MANSFIELD      PTCLDY    62  54  74 SW8       29.86R
YOUNGSTOWN     MOSUNNY   63  61  93 W8        29.82R
$$

OHZ042-051>053-060>062-070>072-077>081-241200-
  SOUTHWEST OHIO

CITY           SKY/WX    TMP DP  RH WIND       PRES   REMARKS
CINC-COVINGTON PTCLDY    63  62  97 W8        29.93R
CINC-LUNKEN    CLEAR     60  60 100 CALM      29.93R
HAMILTON       CLEAR     63  63 100 W6        29.92R
DAYTON         PTCLDY    62  59  90 W12       29.91R
WRIGHT-PAT AFB CLEAR     61  61 100 SW6       29.90R
DAYTON GENERAL CLEAR     63  60  90 W6        29.91R
WILMINGTON     CLEAR     63  63 100 W8        29.91R
$$

OHZ036-037-039>041-045>050-054>059-063>069-073>076-082>088-241200-
  CENTRAL AND SOUTHEAST OHIO

CITY           SKY/WX    TMP DP  RH WIND       PRES   REMARKS
COLUMBUS       PTCLDY    63  63 100 SE3       29.87R
OSU AIRPORT    PTCLDY    63  61  93 W8        29.88R
BOLTON FIELD   NOT AVBL
RICKENBACK AFB CLEAR     61  61 100 SW7       29.88R
NEWARK         CLEAR     63  61  93 S3        29.88R
MARION         MOCLDY    63  56  78 W8        29.87R
LANCASTER      CLEAR     62  62 100 S3        29.89R
ZANESVILLE     CLEAR     64  62  93 SW3       29.88R
NEW PHILLY     NOT AVBL
$$




USA.gov is the U.S. government's official web portal to all federal, state and local government web resources and services.